Weather History for Scottsbluff, NE

Change the Weather History Date:

Saturday, August 3, 2013

  Actual Average Record
Temperature  
Mean Temperature 67 °F 74 °F  
Max Temperature 71 °F 90 °F 104 °F (1934)
Min Temperature 63 °F 59 °F 42 °F (1974)
Degree Days  
Heating Degree Days 0 0  
Month to date heating degree days 0 0  
Since 1 June heating degree days 23 66  
Since 1 July heating degree days 2 6  
Cooling Degree Days 2 9  
Month to date cooling degree days 23 27  
Year to date cooling degree days 589 463  
Since 1 June cooling degree days 535 440  
Growing Degree Days 17 (Base 50)    
Moisture  
Dew Point 63 °F    
Average Humidity 85    
Maximum Humidity 93    
Minimum Humidity 76    
Precipitation  
Precipitation T in 0.05 in 1.77 in (1987)
Month to date precipitation T 0.16  
Year to date precipitation 7.06 11.16  
Snow  
Snow 0.00 in 0.00 in - ()
Month to date snowfall 0.0 0.0  
Since 1 July snowfall 0.0 0.0  
Snow Depth 0.00 in    
Sea Level Pressure  
Sea Level Pressure 30.07 in    
Wind  
Wind Speed 15 mph (ESE)    
Max Wind Speed 28 mph    
Max Gust Speed 33 mph    
Visibility 10 miles    
Events Rain    
T = Trace of Precipitation, MM = Missing Value Source: NWS Daily Summary

Daily Weather History Graph

Daily Weather History Graph

Search for Another Location

Airport:

Trip Planner

Search our weather history database for the weather conditions in past years. The results will help you decide how hot, cold, wet, or windy it might be!

Date:

Astronomy

Aug. 03, 2013 Rise Set
Actual Time 5:50 AM MDT 8:09 PM MDT
Civil Twilight 5:19 AM MDT 8:41 PM MDT
Nautical Twilight 4:40 AM MDT 9:19 PM MDT
Astronomical Twilight 3:57 AM MDT 10:02 PM MDT
Moon 3:01 AM MDT (8/3) 5:54 PM MDT (8/3)
Length of Visible Light 15h 21m
Length of Day
14h 19m
Waning Crescent, 9% of the Moon is Illuminated
Aug 3
Waning Crescent
Aug 6
New
Aug 14
First Quarter
Aug 20
Full
Aug 28
Last Quarter

Hourly Weather History & Observations

Time (MDT) Temp. Dew Point Humidity Pressure Visibility Wind Dir Wind Speed Gust Speed Precip Events Conditions
12:53 AM 68.0 °F 64.0 °F 87% 29.95 in 10.0 mi ESE 9.2 mph - N/A   Clear
1:46 AM 68.0 °F 64.4 °F 88% 30.07 in 10.0 mi ESE 15.0 mph - N/A   Partly Cloudy
1:53 AM 68.0 °F 64.9 °F 90% 29.92 in 10.0 mi ESE 15.0 mph - N/A   Scattered Clouds
2:04 AM 69.8 °F 64.4 °F 83% 30.07 in 10.0 mi ESE 17.3 mph 23.0 mph N/A   Mostly Cloudy
2:20 AM 69.8 °F 64.4 °F 83% 30.06 in 10.0 mi ESE 15.0 mph 23.0 mph N/A   Overcast
2:53 AM 69.1 °F 64.9 °F 87% 29.91 in 10.0 mi ESE 10.4 mph - N/A   Overcast
3:04 AM 69.8 °F 64.4 °F 83% 30.05 in 10.0 mi ESE 12.7 mph - N/A   Overcast
3:51 AM 69.8 °F 64.4 °F 83% 30.05 in 10.0 mi ESE 15.0 mph - N/A   Overcast
3:53 AM 69.1 °F 64.9 °F 87% 29.90 in 10.0 mi ESE 17.3 mph - N/A   Overcast
4:18 AM 69.8 °F 64.4 °F 83% 30.06 in 10.0 mi SE 15.0 mph - N/A   Overcast
4:53 AM 69.1 °F 64.9 °F 87% 29.91 in 10.0 mi SE 16.1 mph - N/A   Overcast
5:53 AM 68.0 °F 64.9 °F 90% 29.93 in 9.0 mi ESE 10.4 mph - N/A   Overcast
6:53 AM 69.1 °F 64.9 °F 87% 29.96 in 8.0 mi ESE 11.5 mph - N/A   Overcast
7:00 AM 69.8 °F 64.4 °F 83% 30.10 in 7.0 mi ESE 11.5 mph - N/A   Overcast
7:09 AM 69.8 °F 64.4 °F 83% 30.10 in 7.0 mi East 9.2 mph - N/A   Overcast
7:53 AM 69.1 °F 66.0 °F 90% 29.99 in 9.0 mi East 12.7 mph - N/A   Overcast
8:12 AM 69.8 °F 66.2 °F 88% 30.14 in 10.0 mi East 12.7 mph - N/A   Overcast
8:53 AM 70.0 °F 66.9 °F 90% 30.02 in 10.0 mi East 13.8 mph - 0.00 in Rain Light Rain
9:15 AM 64.4 °F 60.8 °F 88% 30.16 in 10.0 mi ENE 23.0 mph 29.9 mph N/A   Overcast
9:24 AM 64.4 °F 59.0 °F 83% 30.17 in 10.0 mi ENE 20.7 mph 32.2 mph N/A   Overcast
9:50 AM 64.4 °F 57.2 °F 77% 30.16 in 10.0 mi East 23.0 mph 32.2 mph N/A   Overcast
9:53 AM 64.9 °F 57.9 °F 78% 30.04 in 10.0 mi East 20.7 mph 29.9 mph N/A   Overcast
10:13 AM 66.2 °F 57.2 °F 73% 30.16 in 10.0 mi East 21.9 mph 29.9 mph N/A   Overcast
10:53 AM 68.0 °F 60.1 °F 76% 30.06 in 10.0 mi East 18.4 mph 25.3 mph N/A   Overcast
11:07 AM 68.0 °F 60.8 °F 78% 30.18 in 10.0 mi East 17.3 mph - N/A   Overcast
11:53 AM 68.0 °F 61.0 °F 78% 30.07 in 10.0 mi East 18.4 mph 24.2 mph N/A   Overcast
12:36 PM 69.8 °F 62.6 °F 78% 30.19 in 10.0 mi ESE 13.8 mph - N/A   Overcast
12:53 PM 70.0 °F 62.1 °F 76% 30.08 in 10.0 mi ESE 17.3 mph 21.9 mph N/A   Overcast
1:11 PM 69.8 °F 62.6 °F 78% 30.19 in 10.0 mi ESE 15.0 mph 24.2 mph N/A   Overcast
1:53 PM 68.0 °F 63.0 °F 84% 30.08 in 8.0 mi ESE 24.2 mph 29.9 mph N/A   Overcast
2:00 PM 68.0 °F 62.6 °F 83% 30.19 in 8.0 mi ESE 20.7 mph 29.9 mph N/A   Overcast
2:53 PM 68.0 °F 62.1 °F 81% 30.06 in 9.0 mi ESE 20.7 mph 27.6 mph N/A   Overcast
3:16 PM 69.8 °F 62.6 °F 78% 30.17 in 10.0 mi SE 23.0 mph 28.8 mph N/A   Overcast
3:53 PM 69.1 °F 62.1 °F 78% 30.06 in 10.0 mi ESE 20.7 mph - N/A   Overcast
4:46 PM 68.0 °F 62.6 °F 83% 30.17 in 7.0 mi SE 16.1 mph - N/A   Overcast
4:53 PM 69.1 °F 62.1 °F 78% 30.05 in 8.0 mi SE 12.7 mph 21.9 mph N/A   Overcast
5:53 PM 70.0 °F 62.1 °F 76% 30.04 in 10.0 mi SSE 18.4 mph 23.0 mph N/A   Overcast
6:53 PM 70.0 °F 62.1 °F 76% 30.05 in 10.0 mi SSE 13.8 mph - N/A   Overcast
7:53 PM 69.1 °F 63.0 °F 81% 30.06 in 10.0 mi SSE 12.7 mph - N/A   Overcast
8:53 PM 69.1 °F 63.0 °F 81% 30.09 in 10.0 mi ESE 8.1 mph - N/A   Overcast
9:45 PM 68.0 °F 62.6 °F 83% 30.21 in 10.0 mi ESE 9.2 mph - N/A   Mostly Cloudy
9:53 PM 66.9 °F 63.0 °F 87% 30.11 in 10.0 mi ESE 10.4 mph - N/A   Scattered Clouds
10:53 PM 66.0 °F 62.1 °F 87% 30.06 in 10.0 mi SE 16.1 mph 24.2 mph N/A   Clear
11:53 PM 64.0 °F 62.1 °F 93% 30.05 in 8.0 mi SE 9.2 mph - N/A   Clear